(287) Nephthys
ephemeris date magn radius delta ra dec elong phase
Today17 Sep 202513.32.314 AU3.113 AU13h41m-02°49'31.3°13.1°
Opposition31 Jul 202610.92.311 AU1.298 AU20h40m-13°53'175.6°1.9°
(287) Nephthys - 2025-09-17
astro.vanbuitenen.nl


 
-1 year
-1 month
-1 day
Now
+1 day
+1 month
+1 year

The interactive orbit chart above shows the body's path through the solar system and its position at the given date. Green and blue lines are shown perpendicular to the ecliptic plane: Green if the path is above the ecliptic plane, blue if it is below. (Left-click and drag to rotate the view; Right-click and drag to move the view; Use scroll wheel to zoom in our out.)

The orbital elements of Nephthys are:

            e (Eccentricity)                : 0.0236221
            a (Semimajor axis)              : 2.3526090
            i (Inclination)                 : 10.03389
            Ω (Longitude of ascending node) : 142.23258
            ω (Argument of perihelion)      : 122.87019
            M (Mean anomaly)                : 277.77541
            Epoch                           : 2025 May 05

            L (Longitude of perihelion)     : 85.50660
            B (Latitude of perihelion)      : 8.41469
            P (Orbital period in years)     : 3.61            
        

The light curve chart below shows the estimated development of the minor planet's magnitude.


The all-sky chart below shows the path of the minor planet over the same period as the light curve. The current position is marked yellow.





The following chart shows the path of the minor planet in the next few days. The field of view is optimized for (~10x50) binoculars and finderscopes. A more printer-friendly version of the same chart can be found below.




Ephemerides:
Date       Time       RA (2000)    DEC (2000)    delta   radius  elong  phase   PA    magn
2025-09-17 00:00 UT   13 41 43.2   -02 49 18     3.113    2.314   31.3   13.1    99   13.3 
2025-09-17 09:07 UT   13 42 23.6   -02 53 20     3.115    2.314   31.2   13.0    99   13.3 
2025-09-18 00:00 UT   13 43 29.7   -02 59 55     3.118    2.314   30.9   12.9    99   13.3 
2025-09-19 00:00 UT   13 45 16.5   -03 10 29     3.124    2.314   30.4   12.7    99   13.3 
2025-09-20 00:00 UT   13 47 03.5   -03 21 03     3.129    2.314   29.9   12.5    98   13.3 
2025-09-21 00:00 UT   13 48 50.8   -03 31 34     3.135    2.313   29.4   12.3    98   13.3 
2025-09-22 00:00 UT   13 50 38.4   -03 42 04     3.140    2.313   29.0   12.1    98   13.3 
2025-09-23 00:00 UT   13 52 26.2   -03 52 32     3.145    2.313   28.5   11.9    97   13.3 
2025-09-24 00:00 UT   13 54 14.2   -04 02 59     3.150    2.313   28.0   11.7    97   13.3 
2025-09-25 00:00 UT   13 56 02.6   -04 13 23     3.155    2.313   27.5   11.6    97   13.3 
2025-09-26 00:00 UT   13 57 51.1   -04 23 45     3.160    2.313   27.0   11.4    96   13.3 
2025-09-27 00:00 UT   13 59 39.9   -04 34 06     3.165    2.312   26.6   11.2    96   13.3 
2025-09-28 00:00 UT   14 01 29.0   -04 44 24     3.170    2.312   26.1   11.0    95   13.3 
2025-09-29 00:00 UT   14 03 18.3   -04 54 40     3.174    2.312   25.6   10.8    95   13.3 
2025-09-30 00:00 UT   14 05 07.8   -05 04 54     3.179    2.312   25.1   10.6    95   13.3 
2025-10-01 00:00 UT   14 06 57.6   -05 15 05     3.183    2.312   24.7   10.4    94   13.3 
2025-10-02 00:00 UT   14 08 47.7   -05 25 14     3.188    2.311   24.2   10.2    94   13.3 
2025-10-03 00:00 UT   14 10 37.9   -05 35 21     3.192    2.311   23.7   10.0    93   13.2 
2025-10-04 00:00 UT   14 12 28.4   -05 45 25     3.196    2.311   23.3    9.8    93   13.2 


    Terminology:
            
    delta:  distance between minor planet and earth in AU
    radius: distance between minor planet and sun in AU
    magn:   magnitude (brightness) estimate    
    ra:     right ascension in hours (24h = 360deg)
    dec:    declination in degrees
    elong:  elongation in degrees (angle sun-earth-minor planet)    
    phase:  phase angle in degrees (angle sun-minor planet-earth)        
    AU:     Astronomical Unit (mean distance between earth and sun: 149597870.7 km
    

Orbital elements provided by the MPC (Minor Planet Center).
Calculations by a modified version of AAPlus, a C# implementation of the AA+ project by PJ Naughter from the algorithms presented in the book "Astronomical Algorithms" by Jean Meeus.
NGC2000 dso catalog and star labels from VizieR as provided by the Strasbourg astronomical Data Center.
Tycho2 catalog from the ESO archive.